Weather Service Report


873 
ASUS41 KALY 011010
RWRALY

NEW YORK STATE HOURLY WEATHER ROUNDUP
NATIONAL WEATHER SERVICE ALBANY NY
600 AM EDT WED APR 01 2015

NOTE: "FAIR" INDICATES FEW OR NO CLOUDS BELOW 12,000 FEET WITH NO
SIGNIFICANT WEATHER AND/OR NO OBSTRUCTIONS TO VISIBILITY.

NYZ032-033-038>043-046>054-057>066-NYZ062>081-011100-
EAST

  
CITY           SKY/WX    TMP DP  RH WIND       PRES   REMARKS
ALBANY         PTCLDY    26  11  52 N5        29.96R WCI  20          
GLENS FALLS    CLEAR     20  14  77 CALM      29.96R                  
POUGHKEEPSIE   LGT RAIN  27  22  81 CALM      29.95R                  
NEWBURGH       PTCLDY    25  25 100 CALM      29.94R                  
MONTGOMERY     FOG       22  21  96 CALM      29.94R VSB 1            
WHITE PLAINS   CLEAR     29  19  66 NW13      29.91R WCI  19          
ISLIP          MOCLDY    33  24  69 NW10      29.90R WCI  25          
NEW YORK CITY  PTCLDY    34  23  64 NW10      29.94R WCI  26          
CENTRAL PARK   CLEAR     32  21  64 VRB3      29.96R                  
$$

NYZ005>009-017-018-044>046-055-056-011100-
CENTRAL

  
CITY           SKY/WX    TMP DP  RH WIND       PRES   REMARKS
FULTON         CLEAR     21  16  81 CALM      30.01R                  
SYRACUSE       MOCLDY    22  17  81 CALM      30.00R                  
ROME           PTCLDY    18  14  84 CALM      30.01R                  
ELMIRA         MOCLDY    25  24  96 W8        29.97R WCI  16          
BINGHAMTON     PTCLDY    24  19  81 NW3       29.91R                  
MONTICELLO     MOCLDY    21  14  73 CALM      29.91S                  
$$

NYZ026>034-041>043-011100-
NORTH

  
CITY           SKY/WX    TMP DP  RH WIND       PRES   REMARKS
WATERTOWN      CLEAR     15  11  83 CALM      30.02R                  
FORT DRUM      NOT AVBL                                               
MASSENA        CLEAR     22   4  46 N6        30.03R WCI  14          
SARANAC LAKE   CLEAR      0  -3  87 CALM      29.88R                  
PLATTSBURGH    CLEAR     21   8  57 NW7       29.98R WCI  12          
$$

NYZ001>004-010>016-019>021-011100-
WEST

  
CITY           SKY/WX    TMP DP  RH WIND       PRES   REMARKS
NIAGARA FALLS  CLEAR     26  17  68 NW5       30.04R WCI  20          
BUFFALO        PTCLDY    27  22  81 W3        30.04R                  
DUNKIRK        CLEAR     23  21  92 CALM      30.05R                  
JAMESTOWN      CLEAR     25  21  86 NW3       29.99R                  
WELLSVILLE     PTCLDY    26  21  81 NW10      29.95R WCI  16          
ROCHESTER      CLOUDY    30  23  75 NW6       30.03R WCI  24          
PENN YAN       MOCLDY    30  21  69 W8        29.98R WCI  22          
$$

             KEY
       WCI = WIND CHILL INDEX
       VSB = VISIBILITY
       HX  = HEAT INDEX
$$

Return to Home page


Western Regional Climate Center, wrcc@dri.edu